Cosmos 1408 Rocket - Orbit

View from above orbital plane
View from above orbital plane
View from above satellite
View from above satellite

Ground track
Ground track

The orbit data is extracted from the following two-line orbital elements,

1 13553U 82092B   13168.12703516  .00000175  00000-0  18420-4 0  6126
2 13553 082.5685 154.5693 0022051 186.2200 221.1802 14.83195468660383
Epoch (UTC): 17 June 2013 03:02:55
Eccentricity: 0.0022051
inclination: 82.5685°
perigee height: 604 km
apogee height: 634 km
right ascension of ascending node: 154.5693°
argument of perigee: 186.2200°
revolutions per day: 14.83195468
mean anomaly at epoch: 221.1802°
orbit number at epoch: 66038

The dashed part of the orbit path shows where the satellite is in the earth's shadow,  

Developed and maintained by Chris Peat, Heavens-Above GmbH. Please read the updated FAQ before sending e-mail. Imprint. DLR